Skip Navigation Links
NOAA logo - Click to go to the NOAA homepage
NOAA's National Weather Service
Alaska Aviation Weather Unit
  NWS logo - Click to go to the NWS homepage
Left Navbar Graphic     00 AKDT = 08 GMT

   
NOAA is celebrating 200 years of science, service, and stewardship. Visit the NOAA 200th celebration Web site to learn more.
USA.gov is the U.S. Government's official Web portal to all Federal, state and local government Web resources and services.
Facebook
NWS on Facebook

Important Change Regarding the AAWU Web Presence

 

Over the last several months, the AAWU has been working to navigate its webpages to a nationally supported server. Security, as well as other needs, have necessitated the change.  We have been given an extension for the site changeover while we diligently work at addressing feedback received. As of July 14, 2017, aawu.arh.noaa.gov will be discontinued. The new AAWU web address is weather.gov/aawu. It is now live and will run in-parallel with the old site until it is discontinued on July 14, 2017. Please continue to send any feedback or questions regarding the new webpages to nws.ar.aawu.webauthors@noaa.gov.  Thank you for your patience during this time of transition.
AAWU Home :: Display TAF Add Bookmark
TAF PATA 240540Z 2406/2506  09010KT P6SM SCT100 BKN200
     FM250200 09005KT P6SM VCSH OVC050=

4311
FTAK31 PAFA 240540
TAFABR
TAF

METAR PATA 240252Z 10011KT 10SM BKN100 09/04 A2960 RMK AO2 SLP026 T00940039 58010= PATA 240352Z 09010KT 10SM BKN100 08/04 A2959 RMK AO2 SLP025 T00830039= METAR PATA 240452Z 10008KT 10SM SCT100 08/03 A2959 RMK AO2 SLP023 T00780033= METAR PATA 240552Z AUTO 10007KT 10SM BKN075 07/03 A2959 RMK AO2 SLP022 T00720033 10100 20072 56005 TSNO= METAR PATA 240652Z AUTO 09008KT 10SM BKN080 08/03 A2958 RMK AO2 SLP019 T00780033 TSNO= METAR PATA 240752Z AUTO 33004KT 10SM OVC080 04/03 A2958 RMK AO2 SLP019 T00390028 TSNO=
 Alaska TAF Map

NOAA's National Weather Service
Alaska Aviation Weather Unit
6930 Sand Lake Road
Anchorage, AK 99502-1845
Disclaimer
Credits
Glossary
Privacy Policy
About Us
Career Opportunities
Contact AAWU Internet Services Site last modified: April, 17th 2012